Terminal Aerodrome Forecast
Issued by NWS Columbia, SC

Home | Current Version | Previous Version | Text Only | Print | Product List | Glossary On
Versions: 1 2 3 4 5 6 7 8 9 10 11 12 13 14 15 16 17 18 19 20 21 22 23 24 25 26 27 28 29 30 31 32 33 34 35 36 37 38 39 40 41 42
881
FTUS42 KCAE 231947 AAB
TAFAGS
TAF AMD
KAGS 231947Z 2320/2418 18012G25KT 6SM -SHRA BR SCT015 BKN025
      TEMPO 2320/2323 2SM SHRA BKN015
     FM240200 26008KT P6SM SCT030
     FM240600 28005KT P6SM SKC=

USA.gov is the U.S. government's official web portal to all federal, state and local government web resources and services.